Location: Ch�tillon
(48.8024°N, 2.2935°E)
Time: 19:36:28
(UTC+00:00)

DOVE 4 - Visible Passes

Search period start: 26 June 2022 00:00
Search period end: 06 July 2022 00:00
Orbit: 586 x 798 km, 97.8° (Epoch: 24 June)

Date Brightness Start Highest point End Pass type
(mag) Time Alt. Az. Time Alt. Az. Time Alt. Az.
26 Jun ? 00:59:37 10° NNW 01:03:09 21° WNW 01:06:49 10° WSW visible
26 Jun ? 22:24:07 10° NE 22:27:43 20° E 22:29:38 16° ESE visible
27 Jun ? 00:00:52 10° N 00:05:36 61° WNW 00:08:18 26° SW visible
27 Jun ? 01:41:27 10° NW 01:42:20 10° NW 01:43:13 10° WNW visible
27 Jun ? 23:03:00 10° NNE 23:07:40 43° E 23:09:46 29° SSE visible
28 Jun ? 00:40:57 10° N 00:45:05 29° WNW 00:48:27 15° WSW visible
28 Jun ? 22:06:38 10° NE 22:09:17 14° E 22:11:14 12° ESE visible
28 Jun ? 23:42:31 10° NNE 23:47:25 86° WNW 23:49:55 31° SSW visible
29 Jun ? 01:21:41 10° NNW 01:24:21 15° WNW 01:27:05 10° W visible
29 Jun ? 22:44:57 10° NNE 22:49:21 31° E 22:51:22 23° SE visible
30 Jun ? 00:22:25 10° N 00:26:58 40° WNW 00:30:03 20° SW visible
30 Jun ? 23:24:14 10° NNE 23:29:11 68° ESE 23:31:30 33° S visible
01 Jul ? 01:02:45 10° NNW 01:06:20 20° WNW 01:10:00 10° WSW visible
01 Jul ? 22:27:03 10° NE 22:30:58 22° E 22:32:57 18° ESE visible
02 Jul ? 00:03:58 10° N 00:08:50 57° WNW 00:11:37 26° SW visible
02 Jul ? 01:44:49 10° NW 01:45:27 10° NW 01:46:06 10° WNW visible
02 Jul ? 23:06:03 10° NNE 23:10:54 48° E 23:13:04 30° SSE visible
03 Jul ? 00:44:04 10° N 00:48:15 28° WNW 00:51:44 14° WSW visible
03 Jul ? 22:09:24 10° NE 22:12:32 16° E 22:14:30 13° ESE visible
03 Jul ? 23:45:35 10° NNE 23:50:37 80° WNW 23:53:11 31° SSW visible
04 Jul ? 01:24:50 10° NNW 01:27:28 14° WNW 01:30:09 10° W visible
04 Jul ? 22:47:56 10° NNE 22:52:33 34° E 22:54:37 25° SE visible
05 Jul ? 00:25:30 10° N 00:30:08 38° WNW 00:33:17 19° SW visible
05 Jul ? 21:52:30 10° ENE 21:54:01 11° E 21:55:33 10° ESE visible
05 Jul ? 23:27:16 10° NNE 23:32:22 74° ESE 23:34:42 34° S visible
